Regional Weather Roundup
Issued by NWS

Home | Current Version | Previous Version | Graphics & Text | Print | Product List | Glossary Off
Versions: 1 2 3 4 5 6 7 8 9 10 11 12 13 14 15 16 17 18 19 20 21 22 23 24 25 26 27 28 29 30 31 32 33 34 35 36 37 38 39 40 41 42 43 44 45 46 47 48 49 50

000
ASUS43 KDMX 282201
RWRIA

WEATHER ROUNDUP FOR IOWA
NATIONAL WEATHER SERVICE DES MOINES IA
400 PM CST TUE FEB 28 2017

NOTE: "FAIR" INDICATES FEW OR NO CLOUDS BELOW 12,000 FEET WITH NO
SIGNIFICANT WEATHER AND/OR OBSTRUCTIONS TO VISIBILITY.

* - THESE STATIONS ARE NOT NWS STATIONS...THUS NOT UNDER NWS
QUALITY CONTROL.  THEY ALSO DO NOT REPORT WEATHER SUCH
AS PRECIPITATION OR FOG.

IAZ001>003-012>014-020>022-031>034-043>046-282300-
   NORTHWEST IOWA

CITY           SKY/WX    TMP DP  RH WIND       PRES   REMARKS
CARROLL *      CLOUDY    41  41 100 N13       29.59S
CHEROKEE *     CLOUDY    38  35  90 N8        29.64R WCI  32
DENISON *      CLOUDY    43  37  81 N9G15     29.58S
LE MARS *      CLOUDY    39  36  87 N9        29.66S WCI  33
SHELDON *      CLOUDY    36  36 100 N16       29.64R WCI  26
SIOUX CITY     CLOUDY    41  34  76 N13       29.65R
SPENCER        CLOUDY    42  36  79 N7        29.63S
STORM LAKE *   CLOUDY    37  36  93 N14       29.60S WCI  29
$$

IAZ055>058-069>071-079>083-090>094-282300-
   SOUTHWEST IOWA

CITY           SKY/WX    TMP DP  RH WIND       PRES   REMARKS
ATLANTIC *     CLOUDY    50  45  81 N7        29.57S
AUDUBON *      CLOUDY    43  39  87 N9        29.59R
CLARINDA *     CLOUDY    57  41  54 W9        29.58R
COUNCIL BLFS * CLOUDY    43  41  93 NW10      29.60R
CRESTON *      CLOUDY    59  39  47 NW8       29.54F
HARLAN  *      CLOUDY    45  45 100 N9        29.62R
LAMONI         CLOUDY    67  49  52 W14       29.52F
RED OAK *      CLOUDY    52  45  76 N7G15     29.56S
SHENANDOAH *   CLOUDY    54  45  71 NW9       29.58R
$$

IAZ047>049-059>061-072>074-084-282300-
   CENTRAL IOWA

CITY           SKY/WX    TMP DP  RH WIND       PRES   REMARKS
AMES           CLOUDY    49  46  90 N7        29.54F
ANKENY *       CLOUDY    54  48  82 N9        29.55S
BOONE *        MOSUNNY   46  46 100 NW15      29.54F
CHARITON *     MOSUNNY   61  54  77 NW12G21   29.51F
DES MOINES     CLOUDY    56  47  71 NW9       29.54F
GRINNELL*      CLOUDY    60  44  55 N8        29.54S
KNOXVILLE *    PTSUNNY   64  43  45 N7G14     29.52R
MARSHALLTOWN   CLOUDY    53  49  86 N9        29.54F
NEWTON *       PTSUNNY   55  50  82 N12       29.52S
PELLA *        PTSUNNY   63  45  52 NW9       29.53S
PERRY *          N/A     47  44  87 NW9       29.56F
$$

IAZ004>006-015-016-023>025-035-036-282300-
   NORTH CENTRAL IOWA

CITY           SKY/WX    TMP DP  RH WIND       PRES   REMARKS
ALGONA *       MOSUNNY   37  37 100 N8        29.61R WCI  31
CLARION *      FOG       37  37 100 N8        29.58F VSB 3/4 WCI  31
ESTHERVILLE    CLOUDY    39  37  92 N6        29.62R FOG     WCI  35
FORT DODGE *   CLOUDY    39  34  81 CALM      29.61R
MASON CITY     CLOUDY    38  35  89 N12       29.59S FOG     WCI  30
FOREST CITY *  CLOUDY    39  34  81 N9        29.59S WCI  33
WEBSTER CITY * FOG       39  37  93 N7        29.56S VSB 1   WCI  34
IOWA FALLS *   CLOUDY    46  43  91 N6        29.57S FOG
$$

IAZ007>011-017>019-026>030-037>042-050>054-066-282300-
   NORTHEAST IOWA

CITY           SKY/WX    TMP DP  RH WIND       PRES   REMARKS
CEDAR RAPIDS   CLOUDY    60  52  74 NW10      29.52F
CHARLES CITY * FOG       41  41 100 NE7       29.56F VSB<1/4
CLINTON *      TSTM      61  57  88 SE12G17   29.51F FOG
DECORAH *      FOG       45  45 100 E9        29.54F VSB<1/4
DUBUQUE        CLOUDY    60  56  86 SE6       29.53F
MONTICELLO *   CLOUDY    63  57  82 NW5       29.51F
OELWEIN *      CLOUDY    52  50  93 N7        29.55F
WATERLOO       CLOUDY    52  47  83 N6        29.54F
$$

IAZ064-065-067-068-078-282300-
   EAST CENTRAL IOWA

CITY           SKY/WX    TMP DP  RH WIND       PRES   REMARKS
DAVENPORT      CLOUDY    66  57  72 SW15      29.51F
IOWA CITY      TSTM      60  56  86 NW13G24   29.54S VSB 1
MUSCATINE *    CLOUDY    70  54  56 SW13G18   29.51F
QUAD CITIES    CLOUDY    68  57  68 SW13      29.49F
$$

IAZ062-063-075>077-085>089-095>099-282300-
   SOUTHEAST IOWA

CITY           SKY/WX    TMP DP  RH WIND       PRES   REMARKS
BURLINGTON     CLOUDY    69  58  67 SW9       29.54F THUNDER
FAIRFIELD *    CLOUDY    70  52  52 SW10      29.52F
FORT MADISON * LGT RAIN  70  54  56 SW8G29    29.55F
KEOKUK *       CLOUDY    68  57  68 SW12      29.54S
OTTUMWA        CLOUDY    68  52  56 SW15G24   29.51F
WASHINGTON *   CLOUDY    68  54  60 SW14G21   29.53F
$$

ABBREVIATIONS USED IN REMARKS
   TC - TEMPERATURES IN CELSIUS
  WCI - WIND CHILL INDEX
   HX - HEAT INDEX
  VSB - VISIBILITY
$$





USA.gov is the U.S. government's official web portal to all federal, state and local government web resources and services.